Location: Praha
(50.0830°N, 14.4670°E)
Time: 12:35:19
(UTC+02:00)

ISS - Pass Details

Date: 04 July 2019
Orbit: 409 x 418 km, 51.6° (Epoch: 21 July)

Event Time Altitude Azimuth Distance (km) Brightness Sun altitude
Exits shadow 03:21:25 13° 175° (S) 1,305 -1.7 -11.1°
Maximum altitude 03:23:04 18° 141° (SE) 1,100 -1.8 -11.0°
Drops below altitude 10° 03:25:22 10° 96° (E) 1,476 -0.6 -10.8°
Sets 03:27:54 0° 77° (ENE) 2,341 0.8 -10.6°
